{"data":{"norad_id":63964,"intl_designator":"2025-099N","name":"STARLINK-34135","alt_names":[],"object_type":"PAYLOAD","status":"ACTIVE","operator":null,"country":"US","launch_date":"2025-05-13","launch_site_code":"AFETR","launch_vehicle":null,"mission":null,"orbit_class":"UNKNOWN","rcs_meters":null,"size_class":null,"mass_kg":null,"dimensions":null,"purposes":["comms"],"wikipedia_slug":null,"has_3d_model":false,"image_url":null,"decayed_at":null,"tle_current":{"epoch":"2026-09-20T03:00:09.492768Z","epoch_age_seconds":179521,"freshness":"STALE","line1":"1 63964U 25099N   26263.12510987  .00009508  00000+0  35447-3 0  9992","line2":"2 63964  42.9995 158.0640 0001321 269.4192  90.6508 15.27589856 77077","mean_motion":15.27589856,"eccentricity":0.0001321,"inclination_deg":42.9995,"raan_deg":158.064,"arg_perigee_deg":269.4192,"mean_anomaly_deg":90.6508,"bstar":0.00035447,"rev_number":7707,"period_min":94.266140505191,"perigee_km":482.11322500394,"apogee_km":483.92594257337,"semimajor_km":6861.1565837887,"source":"CELESTRAK","updated_at":"2026-09-21T09:00:35.176136Z"}}}